Timeline UpdatesTrip UpdatesNews PostsPvt Posts♥♥Travel TipsAdmin PostsConv PostsFollowed PostsChat RequestsBlog PostsPNR Posts

Disclaimer
Search
 
 
Mon Nov 24, 2014 09:16:44 ISTHomeTrainsΣChainsAtlasPNRForumGalleryNewsFAQTripsMembersLoginFeedback
No Recent News for this Train
Other Trains in the News **new
Latest...
Cancelled from 31/12/14-15/2/15 #1263410
Sat Nov 01, 2014 (07:19PM)
⇐ Return Journey: Train# 15484

14083⇒15483/Sikkim Mahananda Express

Nov 24 departure has been Rescheduled to start 3h 10m late
New Time: 13:00
NO Time-Table Change.
Nov 01 (7:19PM)
Change Departure Station:
Change Arrival Station:
Post a Train Travel TipPost a Train Travel Tip **new
Post a Comment/Question/Picture/VideoPost a Comment/Question/Picture/Video
Pantry/Catering
✓ Pantry Car Avbl
✓ Catering Avbl
RSA - Rake Sharing
Rake/Coach Composition
LOCO-SLR-GS-GS-GS-AB-B1-PC-S11-S10-S9-S8-S7-S6-S5-S4-S3-S2-S1-GS-GS-GS-SLR
Loco
SGUJ WDP-4 (APDJ to PNBE), GZB/MGS WAP-4 (PNBE to DLI)
News    PNR    Forum    Time-Table    Availability    Fare Chart    Map    Arr/Dep History    Trips    Gallery    ΣChains    X/O    Timeline    
Travel Time: 15h 35m    29 halts    Distance: 659 km    Avg Speed: 42 km/hr
Type: Mail/Express
Zone: NFR/Northeast Frontier
Departs @ 09:50 (Avg 3h 34m late)
Platform# 1
SMTWTFS
Alipur Duar Junction/APDJ 
Arrives @ 01:25 +1 night (Avg 3h 41m late)
Platform# 4
SMTWTFS
Patna Junction/PNBE 

29 halts. 130 intermediate Stations between Alipur Duar Junction and Patna Junction

Show ALL intermediate Stations  

#TrkCodeStation NameX/OArrivesAvgDepartsAvgHaltPFDay#KmSpeedElevZoneAddress
1|--|APDJAlipur Duar Junction (3)»  -09:50+3:34110.07053mNFRDist - Alipurduar, West Bengal
2|--|HSAHasimara (3)X  10:20+3:3510:22+3:362m--134.863123mNFRDist - Alipurduar, West Bengal
3|--|DLODalgaon (3)  10:46+3:4210:47+3:441m1160.138 NFRDist : Alipurduar, West Bengal
4|--|BNVBinnaguri (3)  11:01+3:3711:02+3:271m--169.165132mNFRDist : jalpaiguri, West Bengal
5|--|NMZNew Mal Junction (3)  11:43+3:2211:48+3:215m--1113.443161mNFRDist - Jalpaiguri, West Bengal
6|--|SGUJSiliguri Junction (6)X  12:55+3:2413:00+3:085m--1161.212120mNFRDist - Darjeeling, West Bengal
7|--|NJPNew Jalpaiguri Junction (8)X  13:35+3:1413:55+3:1520m31168.577114mNFRCity-Siliguri . Dist-Jalpaiguri, West Bengal
8%==%AUBAluabari Road (2)O  14:39+3:2314:41+3:122m21225.2630mNFRDist - uttar Dinajpur, West Bengal
9%==%KNEKishanGanj (3)O  15:10+3:2315:15+3:235m21255.87152mNFRKishanganj, Bihar
10%==%DLKDalkhola (3)X  15:39+3:2615:40+3:271m101284.35844mNFRDalkola, West Bengal
11%==%BOEBarsoi Junction (3)X  16:10+3:2816:12+3:302m--1313.45337mNFRdist- katihar, Bihar
12%==%AZRAzamnagar Road (3)X  16:27+3:3016:28+3:321m--1326.73134mNFRAzamnagar, Bihar
13%--%LAVLabha (2)  17:10+3:3117:11+3:331m11348.41529mNFRDist : Katihar, Bihar
14%--%KIRKatihar Junction (7)X  18:45+3:2219:00+3:2515m51371.44635mNFRKatihar 854105, Bihar
15%-=%SMOSemapurX  19:15+3:1119:16+3:121m--1382.96535mECRKatihar, Bihar
16%==%CRRKaragola Road  19:26+3:1419:27+3:161m--1393.67836mECRLachhmipur, Bihar
17%=-%KUEKurselaX  19:40+3:2219:41+3:241m--1410.64831mECRNH 31, Bihar
18%==%NNANaugachia (3)X  20:04+3:2420:05+3:251m--1429.16437mECRBhagalpur, Bihar
19%==%THBThana Bihpur Junction (3)  20:20+3:2920:21+3:311m--1445.05139mECRThana Bihpur, Bihar
20%==%NNRNarayanpur (2)X  20:30+3:3320:31+3:251m--1452.75439mECRNarayanpur, Bihar
21%==%PSRPasraha (3)  20:44+3:2620:45+3:291m--1464.35341mECRPasraha, Bihar
22%==%MSKMahes Khunt (2)X  20:59+3:3321:00+3:381m--1476.65737mECRMaheshkhunt, Bihar
23%==%MNEMansi Junction (4)XO  21:11+3:4021:12+3:441m--1487.03343mECRMansi, Bihar
24%=-|KGGKhagaria Junction (3)X  21:28+3:4921:29+3:521m--1495.86243mECRKhagaria, Bihar
25%==%SKJSahibpur Kamal Junction (2)  21:41+3:5421:42+3:531m--1508.24241mECRShahpur Kamal, Bihar
26%==%LKNLakhminia (3)X  21:56+3:5221:57+3:531m--1517.93645mECRBegusarai, Bihar
27%==%BGSBegusarai (3)  22:27+3:2922:28+3:301m--1535.72246mECRBegusarai, Bihar
28%--/BJUBarauni Junction (9)X  23:05+3:1123:10+3:145m11549.22849mECRBegusarai, Bihar
29/--/MKAMokama Junction (4)  23:54+4:1223:56+4:132m31569.88848mECRPatna, Bihar
30/==/BKPBakhtiyarpur Junction (5)X  00:26+4:0700:28+4:092m--2613.74851mECRPatna, Bihar
31/==/PNBEPatna Junction (10)•X  01:25+3:4101:50+3:4525m42659.13557mECRPatna 800001, Bihar
32/==/DNRDanapur (5)  02:06+3:5702:08+3:572m--2668.59158mECRKhagaul, Bihar
33/==/ARAAra Junction (3)X  02:34+4:1102:36+4:112m--2708.07163mECRDistt: Bhojpur Ph 06182-233411, Bihar
34/==/BXRBuxar (3)X  03:34+3:5303:36+3:532m22776.54767mECRBuxar, Bihar
35/==/MGSMughal Sarai Junction (8)  05:35+3:3505:45+3:3810m42870.44583mECRDistt: Chandauli Pin 232101, Uttar Pradesh
36/==/MZPMirzapur (3)XO  07:09+3:5307:10+3:551m--2933.64088mNCRMirzapur, Uttar Pradesh
37/==/BDLVindhyachal (3)  07:21+3:1907:22+3:221m--2940.97788mNCRMirzapur, Uttar Pradesh
38/==/NYNNaini Junction (4)  08:20+4:3308:22+4:332m221015.72498mNCRAllahabad, Uttar Pradesh
39/==/ALDAllahabad Junction (10)XOO  08:40+4:2108:55+4:2815m321022.864100mNCRAllahabad 211003, Uttar Pradesh
40/==/FTPFatehpur (3)  10:44+4:0810:45+4:101m--21139.552120mNCRFatehpur, Uttar Pradesh
41/==/CNBKanpur Central (10)X  12:15+4:1612:25+4:1910m521217.129128mNCRKANPUR-208 001, Uttar Pradesh
42/==/PNKPanki (3)XO  12:49+3:4412:50+3:451m--21228.637129mNCRKANPUR-208 020, Uttar Pradesh
43/==/RURARura (4)  13:43+3:2513:44+3:281m--21261.457137mNCRJhinjhak, Uttar Pradesh
44/==/JJKJhinjhak (3)  14:04+3:1914:05+3:211m321280.570140mNCRAuraiya, Uttar Pradesh
45/==/PHDPhaphund (4)  14:22+4:0414:23+4:091m--21300.363146mNCRdist. Auraiya, Uttar Pradesh
46/==/ULDAchalda (3)  14:39+3:2714:40+3:321m--21317.165147mNCRDist. Auraiya(05688-1072), Uttar Pradesh
47/==/BNTBharthana (3)  14:58+3:0514:59+3:101m--21336.652147mNCRBharthana, Uttar Pradesh
48/==/ETWEtawah (5)  15:22+3:4215:23+3:441m221356.574154mNCRDistt. Etawah, Uttar Pradesh
49/==/SKBShikohabad Junction (4)  16:08+3:1316:09+3:141m321411.957166mNCRDistrict Firozabad, Uttar Pradesh
50/==/FZDFirozabad (4)XO  16:30+3:5116:31+3:561m321431.816164mNCRFirozabad, Uttar Pradesh
51/==/TDLTundla Junction (5)XO  17:35+3:4317:45+3:4210m221448.370167mNCRDistt.Firozabad, Uttar Pradesh
52/==/JLSJalesar Road (1)X  18:09+2:2618:10+2:271m121476.255172mNCRMDR 106W, Uttar Pradesh
53/==/HRSHathras Junction (3)X  18:32+2:3518:33+2:361m--21496.382183mNCRMahamaya Nagar(05722-242803), Uttar Pradesh
54/==/ALJNAligarh Junction (4)O  18:55+2:3819:00+2:385m221526.449192mNCRAligarh, Uttar Pradesh
55/==/KRJKhurja Junction (4)XO  19:53+1:1519:58+1:165m--21569.935199mNCRBulandshahr, Uttar Pradesh
56/==/GZBGhaziabad Junction (6)X  21:45+2:2821:47+2:282m321632.648217mNRGhaziabad, Uttar Pradesh
57/==/DSAShahdara Junction (4)  22:04+3:5622:05+3:561m--21646.211212mNRCircular Rd, Delhi NCT
58/==/DLIOld Delhi Junction (16)  22:40+3:00-1121652.5-219mNRNear Chandni Chowk Metro Station, Delhi NCT
Scroll to Top
Scroll to Bottom